This demonstration page uses our WeatherBlox Daily Observations layout. Learn more.

Left ArrowRight Arrow

Hourly Observations for June 16, 2021

Temp ( °F °C ) Dew Point ( °F °C ) Humidity (%) Winds ( mph kmh ) Pressure ( in mb ) Visibility ( mi km ) Precip ( " mm )
12:53 am 00:53 Clear 70 21.1 54 12.2 57 57 Calm 29.94 1014 10 16 0.00 0.00
1:53 am 01:53 Clear 69 20.6 55 12.8 61 61 Calm 29.95 1014 10 16 0.00 0.00
2:53 am 02:53 Clear 66 18.9 56 13.3 70 70 N 5 7 29.94 1014 10 16 0.00 0.00
3:53 am 03:53 Clear 66 18.9 56 13.3 70 70 Calm 29.93 1013 10 16 0.00 0.00
4:53 am 04:53 Clear 65 18.3 56 13.3 73 73 N 3 6 29.94 1014 10 16 0.00 0.00
5:53 am 05:53 Clear 63 17.2 56 13.3 78 78 Calm 29.96 1014 10 16 0.00 0.00
6:53 am 06:53 Sunny 63 17.2 57 13.9 81 81 Calm 29.97 1015 10 16 0.00 0.00
7:53 am 07:53 Sunny 67 19.4 58 14.4 73 73 Calm 29.97 1015 10 16 0.00 0.00
8:53 am 08:53 Sunny 72 22.2 59 15 64 64 NNE 5 7 29.97 1015 10 16 0.00 0.00
9:53 am 09:53 Sunny 76 24.4 59 15 56 56 NNE 5 7 29.99 1016 10 16 0.00 0.00
10:53 am 10:53 Mostly Sunny 80 26.7 56 13.3 44 44 NNE 9 15 29.99 1016 10 16 0.00 0.00
11:53 am 11:53 Partly Cloudy 81 27.2 56 13.3 42 42 N 6 9 29.99 1016 10 16 0.00 0.00
12:53 pm 12:53 Mostly Sunny 82 27.8 56 13.3 41 41 undefined N/A 29.99 1016 10 16 0.00 0.00
1:53 pm 13:53 Partly Cloudy 83 28.3 57 13.9 41 41 E 7 11 29.98 1015 10 16 0.00 0.00
2:53 pm 14:53 Mostly Sunny 83 28.3 55 12.8 38 38 ENE 7 11 29.97 1015 10 16 0.00 0.00
3:53 pm 15:53 Mostly Cloudy 82 27.8 55 12.8 40 40 NNE 5 7 29.97 1015 10 16 0.00 0.00
4:53 pm 16:53 Sunny 85 29.4 54 12.2 35 35 VRB 3 6 29.96 1015 10 16 0.00 0.00
5:53 pm 17:53 Sunny 82 27.8 55 12.8 40 40 NW 3 6 29.96 1014 10 16 0.00 0.00
6:53 pm 18:53 Mostly Sunny 84 28.9 53 11.7 34 34 NNW 9 15 29.94 1014 10 16 0.00 0.00
7:53 pm 19:53 Sunny 82 27.8 54 12.2 38 38 N 6 9 29.95 1014 10 16 0.00 0.00
8:53 pm 20:53 Clear 78 25.6 53 11.7 42 42 NNW 5 7 29.97 1015 10 16 0.00 0.00
9:53 pm 21:53 Clear 74 23.3 54 12.2 50 50 Calm 29.98 1015 10 16 0.00 0.00
10:53 pm 22:53 Clear 73 22.8 54 12.2 51 51 Calm 29.99 1016 10 16 0.00 0.00
11:53 pm 23:53 Clear 71 21.7 55 12.8 57 57 Calm 29.99 1016 10 16 0.00 0.00

Powered by AerisWeather